This is the latest recevied weather packets stored in our database for station/object NN5DX-13. If no packets are shown the sender has not sent any weather packets the latest 10 day(s).
| Time | Temp. | Humidity | Pressure | Rain* | Wind** | Luminosity | Snow |
|---|---|---|---|---|---|---|---|
| 1787430021 | 37.78° C | 18% | 1019.2 hPa | 0 mm | - | - | - |
| 1787429719 | 37.78° C | 19% | 1019.3 hPa | 0 mm | - | - | - |
| 1787429421 | 37.78° C | 18% | 1019.3 hPa | 0 mm | - | - | - |
| 1787429119 | 37.78° C | 18% | 1019.3 hPa | 0 mm | - | - | - |
| 1787428819 | 38.33° C | 18% | 1019.7 hPa | 0 mm | - | - | - |
| 1787428519 | 38.33° C | 18% | 1019.7 hPa | 0 mm | - | - | - |
| 1787428219 | 38.33° C | 19% | 1019.8 hPa | 0 mm | - | - | - |
| 1787427919 | 38.33° C | 19% | 1019.8 hPa | 0 mm | - | - | - |
| 1787427620 | 38.33° C | 19% | 1019.9 hPa | 0 mm | - | - | - |
| 1787427319 | 38.33° C | 18% | 1019.9 hPa | 0 mm | - | - | - |
| 1787427019 | 37.78° C | 20% | 1020 hPa | 0 mm | - | - | - |
| 1787426719 | 37.78° C | 20% | 1020 hPa | 0 mm | - | - | - |
| 1787426421 | 37.78° C | 20% | 1020.1 hPa | 0 mm | - | - | - |
| 1787426119 | 37.22° C | 20% | 1020.2 hPa | 0 mm | - | - | - |
| 1787425820 | 37.22° C | 21% | 1020.3 hPa | 0 mm | - | - | - |
| 1787425519 | 37.22° C | 20% | 1020.3 hPa | 0 mm | - | - | - |
| 1787425220 | 37.22° C | 20% | 1020.4 hPa | 0 mm | - | - | - |
| 1787424919 | 37.78° C | 21% | 1020.5 hPa | 0 mm | - | - | - |
| 1787424620 | 37.22° C | 20% | 1020.4 hPa | 0 mm | - | - | - |
| 1787424319 | 37.22° C | 21% | 1020.6 hPa | 0 mm | - | - | - |
| 1787423720 | 37.22° C | 22% | 1020.7 hPa | 0 mm | - | - | - |
| 1787423421 | 36.11° C | 23% | 1020.7 hPa | 0 mm | - | - | - |
| 1787423119 | 36.67° C | 23% | 1020.9 hPa | 0 mm | - | - | - |
| 1787422819 | 36.67° C | 23% | 1020.9 hPa | 0 mm | - | - | - |
| 1787422521 | 36.67° C | 21% | 1020.8 hPa | 0 mm | - | - | - |
* Rain latest hour (hover to see other rain measurements)
** Current wind speed in m/s (hover to see current wind gust speed)